FW4151 Weather Reports


time (UTC)temp
C
wind
direction
speed
KPH
gust
KPH
rain 1hr
cm
rain 24hr
cm
rain mn
cm
humidity
%
barometer
mb
20260504024549 8 0.0 0.0 0.00 0.00 0.00 56 1011.2
20260504023049 8 0.0 0.0 0.00 0.00 0.00 56 1011.3
20260504021549 8 0.0 0.0 0.00 0.00 0.00 56 1011.4
20260504020047 8 0.0 0.0 0.00 0.00 0.00 54 1011.3
20260504014600 8 0.0 0.0 0.00 0.00 0.00 53 1011.3
20260504013051 8 0.0 0.0 0.00 0.00 0.00 56 1011.1
20260504011547 8 0.0 0.0 0.00 0.00 0.00 53 1011.1
20260504010048 8 0.0 0.0 0.00 0.00 0.00 51 1011.0
20260504004547 8 0.0 0.0 0.00 0.00 0.00 51 1010.8
20260504003050 9 0.0 0.0 0.00 0.00 0.00 51 1010.7
20260504001545 9 0.0 0.0 0.00 0.00 0.00 51 1010.4
20260504000047 10 0.0 0.0 0.00 0.00 0.00 48 1010.4
20260503234548 10 0.0 0.0 0.00 0.00 0.00 47 1010.3
20260503233042 10 0.0 0.0 0.00 0.00 0.00 45 1010.2
20260503231542 10 0.0 0.0 0.00 0.00 0.00 46 1010.3
20260503230045 10 0.0 0.0 0.00 0.00 0.00 45 1010.2
20260503224539 11 0.0 0.0 0.00 0.00 0.00 45 1010.4
20260503223040 11 0.0 0.0 0.00 0.00 0.00 42 1010.3
20260503221538 11 0.0 0.0 0.00 0.00 0.00 44 1010.4
20260503220046 11 0.0 0.0 0.00 0.00 0.00 44 1010.5
20260503214536 11 0.0 0.0 0.00 0.00 0.00 43 1010.5
20260503213036 10 0.0 0.0 0.00 0.00 0.00 45 1010.5
20260503211536 10 0.0 0.0 0.00 0.00 0.00 45 1010.4
20260503210035 10 0.0 0.0 0.00 0.00 0.00 46 1010.5
20260503204534 10 0.0 0.0 0.00 0.00 0.00 45 1010.6
20260503203034 10 0.0 0.0 0.00 0.00 0.00 42 1010.5
20260503201534 11 0.0 0.0 0.00 0.00 0.00 38 1010.5
20260503200032 11 0.0 0.0 0.00 0.00 0.00 38 1010.4
20260503194531 11 0.0 0.0 0.00 0.00 0.00 38 1010.8
20260503193034 11 0.0 0.0 0.00 0.00 0.00 37 1010.9
20260503191528 11 0.0 0.0 0.00 0.00 0.00 36 1010.9
20260503190033 11 0.0 0.0 0.00 0.00 0.00 34 1011.0
20260503184525 11 0.0 0.0 0.00 0.00 0.00 40 1011.1
20260503183034 11 0.0 0.0 0.00 0.00 0.00 37 1011.5
20260503181519 10 0.0 0.0 0.00 0.00 0.00 43 1011.5
20260503180019 10 0.0 0.0 0.00 0.00 0.00 40 1011.6
20260503174512 9 0.0 0.0 0.00 0.00 0.00 43 1012.0
20260503173012 9 0.0 0.0 0.00 0.00 0.00 40 1012.2
20260503171513 9 0.0 0.0 0.00 0.00 0.00 41 1012.3
20260503160105 7 0.0 0.0 0.00 0.00 0.00 40 1012.8
20260503081610 1 0.0 0.0 0.00 0.00 0.00 80 1012.1
20260503071542 1 0.0 0.0 0.00 0.03 0.00 80 1012.0
20260503070139 1 0.0 0.0 0.00 0.03 0.00 80 1012.0
20260503054530 1 0.0 0.0 0.00 0.03 0.00 78 1012.5
20260503053029 1 0.0 0.0 0.00 0.03 0.00 77 1012.6
20260503051526 1 0.0 0.0 0.00 0.03 0.00 76 1012.7
20260503050034 1 0.0 0.0 0.00 0.03 0.00 76 1013.0
20260503044523 1 0.0 0.0 0.00 0.03 0.00 75 1013.1
20260503043021 2 0.0 0.0 0.00 0.03 0.00 74 1013.2
20260503041519 2 0.0 0.0 0.00 0.03 0.00 72 1013.4
20260503040016 2 0.0 0.0 0.00 0.03 0.00 72 1013.3
20260503034514 2 0.0 0.0 0.00 0.05 0.03 71 1013.3
20260503033023 2 0.0 0.0 0.00 0.05 0.03 69 1013.4
20260503031512 2 0.0 0.0 0.00 0.05 0.03 69 1013.3
20260503030011 3 0.0 0.0 0.00 0.05 0.03 68 1013.4